Regional Weather Roundup
Issued by NWS Kansas City/Pleasant Hill, MO

Home | Current Version | Previous Version | Graphics & Text | Print | Product List | Glossary Off
Versions: 1 2 3 4 5 6 7 8 9 10 11 12 13 14 15 16 17 18 19 20 21 22 23 24 25 26 27 28 29 30 31 32 33 34 35 36 37 38 39 40 41 42 43 44 45 46 47 48 49 50

000
ASUS43 KEAX 310910
RWREAX

WEATHER ROUNDUP FOR EASTERN KANSAS AND NORTHWEST MISSOURI
NATIONAL WEATHER SERVICE KANSAS CITY/PLEASANT HILL MO
400 AM CDT TUE MAY 31 2016

KSZ040-057-103>105-MOZ028-029-037-043-311000-
...KANSAS CITY METROPOLITAN AREA...

CITY           SKY/WX    TMP DP  RH WIND       PRES   REMARKS
K.C. INTL      CLOUDY    61  58  90 W5        29.94S
K.C. DOWNTOWN  CLOUDY    65  60  84 CALM      29.93S
LEES SUMMIT    CLOUDY    63  60  90 CALM      29.94F
OLATHE - IXD   CLOUDY    62  61  96 CALM      29.94F
OLATHE - OJC   CLOUDY    61  60  97 CALM      29.93F
LAWRENCE       CLOUDY    60  59  96 CALM      29.93F

$$

MOZ001>008-011>017-020>025-030>033-038>040-044>046-053-054-311000-
...NORTHERN AND CENTRAL MISSOURI...

CITY           SKY/WX    TMP DP  RH WIND       PRES   REMARKS
ST. JOSEPH     CLOUDY    65  61  87 S7        29.92F
MOSBY          CLOUDY    61  61 100 CALM      29.94S
WARRENSBURG    CLOUDY    61  61 100 E3        29.93S
WHITEMAN AFB   CLOUDY    63  63 100 E5        29.93F
CLINTON        CLOUDY    63  63 100 E5        29.93F
SEDALIA        CLOUDY    64  62  93 E7        29.95F
WARSAW         NOT AVBL
CHILLICOTHE      N/A     60  60 100 CALM      29.96S
KIRKSVILLE     CLOUDY    62  60  93 CALM      29.96F

$$

MOZ041-047>049-056>058-063>065-088>090-097-311000-
...EASTERN AND SOUTHERN MISSOURI...

CITY           SKY/WX    TMP DP  RH WIND       PRES   REMARKS
ST. LOUIS INTL CLOUDY    72  61  68 CALM      29.98S
SPIRIT OF STL  CLOUDY    67  65  93 CALM      29.97S
COLUMBIA       LGT RAIN  64  62  93 E7        29.98F
JEFFERSON CITY LGT RAIN  65  63  93 E5        29.97F
ROLLA          CLOUDY    63  61  93 W3        29.98R
SPRINGFIELD    CLOUDY    65  61  87 S7        29.94S
JOPLIN         CLOUDY    65  63  93 S3        29.94R
WEST PLAINS    CLOUDY    64  61  90 CALM      29.98F

$$

IAZ060-094-KSZ022-034>040-054-083-096-NEZ052-066-093-311000-
...KANSAS...SOUTHEAST NEBRASKA AND IOWA...

CITY           SKY/WX    TMP DP  RH WIND       PRES   REMARKS
TOPEKA         CLOUDY    63  60  90 CALM      29.93F
MANHATTAN      MOCLDY    65  60  84 SW5       29.90F
EMPORIA        CLOUDY    59  58  96 CALM      29.93F
CHANUTE        CLOUDY    61  59  93 SW3       29.94R FOG
WICHITA        CLOUDY    64  62  93 SE6       29.91F
OMAHA          CLOUDY    68  61  78 S9        29.86F
LINCOLN        CLOUDY    67  56  67 W5        29.87F
FALLS CITY     LGT RAIN  65  61  87 SW10      29.90F
LAMONI         CLOUDY    60  58  92 S8        29.93S
DES MOINES     CLOUDY    67  59  75 SE10      29.91F

$$




USA.gov is the U.S. government's official web portal to all federal, state and local government web resources and services.